Home   Weather   Visalia   Past weeks
Flag for USA

Past Weather in Visalia, California, USA — Yesterday and Last 2 Weeks

Now
82 °F

Sunny.


Feels Like: 81 °F
Forecast: 80 / 56 °F
Wind: 7 mph from Southwest

Location: Hanford Municipal Airport

Current Time: May 25, 2019 at 2:17:19 pm

Latest Report: May 25, 2019 at 12:53 pm


Visibility: 10 mi

Pressure: 29.78 "Hg

Humidity: 34%

Dew Point: 51 °F

Location of VisaliaLocation

Past Weather in Visalia — Graph

°F

Visalia Temperature Yesterday

Maximum temperature yesterday: 79 °F (at 5:53 pm)
Minimum temperature yesterday: 54 °F (at 12:53 am)
Average temperature yesterday: 66 °F

High & Low Weather Summary for the Past Weeks

 TemperatureHumidityPressure
High90 °F (May 12, 2:53 pm)97% (May 16, 6:53 am)30.13 "Hg (May 16, 6:53 am)
Low47 °F (May 18, 5:53 am)15% (May 13, 3:53 pm)29.75 "Hg (May 16, 3:53 am)
Average64 °F64%29.91 "Hg
* Reported May 10 12:04 pm — May 25 12:53 pm, Visalia. Weather by CustomWeather, © 2019

Note: Actual official high and low records may vary slightly from our data, if they occured in-between our weather recording intervals... More about our weather records

Advertising

Visalia Weather History for the Previous 24 Hours

Scroll right to see more
 ConditionsComfort  
Time TempWeatherWind HumidityBarometerVisibility
12:53 pm
Sat, May 25
82 °FSunny.7 mph34%29.78 "Hg10 mi
11:53 am80 °FSunny.8 mph39%29.80 "Hg10 mi
10:53 am77 °FSunny.7 mph48%29.80 "Hg10 mi
9:53 am73 °FSunny.5 mph57%29.82 "Hg9 mi
8:53 am69 °FSunny.5 mph68%29.83 "Hg7 mi
7:53 am63 °FSunny.3 mph81%29.83 "Hg6 mi
6:53 am59 °FFog.No wind90%29.82 "Hg4 mi
6:33 am57 °FFog.3 mph93%29.82 "Hg3 mi
6:09 am56 °FFog.5 mph93%29.82 "Hg2 mi
5:53 am56 °FFog.5 mph93%29.82 "Hg4 mi
4:53 am57 °FFog.3 mph90%29.82 "Hg6 mi
3:53 am56 °FFog.3 mph93%29.83 "Hg4 mi
2:53 am58 °FFog.No wind93%29.84 "Hg6 mi
1:53 am62 °FClear.No wind80%29.86 "Hg10 mi
12:53 am65 °FClear.5 mph73%29.87 "Hg10 mi
11:53 pm
Fri, May 24
60 °FClear.No wind90%29.88 "Hg8 mi
10:53 pm62 °FClear.3 mph83%29.89 "Hg10 mi
9:53 pm63 °FClear.3 mph81%29.89 "Hg10 mi
9:18 pm64 °FClear.3 mph78%29.89 "Hg10 mi
9:11 pm65 °FClear.3 mph76%29.89 "Hg2 mi
8:53 pm66 °FClear.3 mph70%29.88 "Hg10 mi
7:53 pm72 °FSunny.5 mph53%29.88 "Hg10 mi
6:53 pm76 °FSunny.5 mph45%29.87 "Hg10 mi
5:53 pm79 °FSunny.8 mph38%29.88 "Hg10 mi
4:53 pm78 °FSunny.6 mph39%29.90 "Hg10 mi
3:53 pm78 °FSunny.5 mph42%29.92 "Hg10 mi
2:53 pm76 °FPassing clouds.5 mph47%29.95 "Hg10 mi
Weather by CustomWeather, © 2019

See weather overview